Date String (YYYY-MM-DD hh:mm:ss) UTC,Instrument flags,absolute air pressure of the measurement (hPa),sample flow rate (lpm),inlet stack bypass flow (lpm),air temperature of the measurement (°C),ambient temperature measured by the external sensor (°C),aerosol sample conditioner tube jacket temperature (°C),OPC LED temperature (°C),internal box temperature (°C),relative humidity of the measurement (%),span deviation,mass concentration of particles derived from Lorenz-Mie calculation of OPC scattering (μg/m³),mass concentration of particles derived from Lorenz-Mie calculation of OPC scattering (μg/m³),mass concentration of particles derived from Lorenz-Mie calculation of OPC scattering (μg/m³)
DateTimeUTC,F1_M11,P_M11,Q1_M11,Q2_M11,T1_M11,T2_M11,T3_M11,T4_M11,T5_M11,U1_M11,ZSPAN_M11,X0_M11,X2_M11,X1_M11
2024-02-20 06:00:00,SystemResetWarning,0827.7,5.01,000.00,022.9,022.3,000.0,031.5,024.8,12.7,0000.0,0010.42,0003.24,0002.33
2024-02-20 06:01:00,SystemResetWarning,0827.7,5.00,000.00,022.9,022.3,000.0,031.5,024.8,12.7,0000.0,0010.60,0003.24,0002.33
2024-02-20 06:02:00,SystemResetWarning,0827.6,5.01,000.00,022.9,022.3,000.0,031.5,024.8,12.6,0000.0,0009.56,0003.26,0002.33
2024-02-20 06:03:00,SystemResetWarning,0827.5,5.00,000.00,022.9,022.2,000.0,031.5,024.8,12.6,0000.0,0009.83,0003.26,0002.33
2024-02-20 06:04:00,SystemResetWarning,0827.5,5.00,000.00,022.9,022.2,000.0,031.5,024.8,12.6,0000.0,0009.67,0003.21,0002.34
2024-02-20 06:05:00,SystemResetWarning,0827.4,5.00,000.00,022.9,022.2,000.0,031.5,024.8,12.7,0000.0,0009.80,0003.20,0002.34
2024-02-20 06:06:00,SystemResetWarning,0827.5,5.00,000.00,022.9,022.2,000.0,031.5,024.8,12.8,0000.0,0010.45,0003.18,0002.35
2024-02-20 06:07:00,SystemResetWarning,0827.5,5.00,000.00,022.9,022.2,000.0,031.5,024.7,12.9,0000.0,0010.51,0003.17,0002.37
2024-02-20 06:08:00,SystemResetWarning,0827.7,5.00,000.00,022.9,022.2,000.0,031.5,024.8,12.9,0000.0,0010.71,0003.18,0002.40
2024-02-20 06:09:00,SystemResetWarning,0827.4,5.00,000.00,022.9,022.2,000.0,031.5,024.8,13.0,0000.0,0010.59,0003.21,0002.43
2024-02-20 06:10:00,SystemResetWarning,0827.4,5.00,000.00,022.9,022.2,000.0,031.5,024.8,13.1,0000.0,0010.06,0003.22,0002.46
2024-02-20 06:11:00,SystemResetWarning,0827.5,5.00,000.00,022.9,022.2,000.0,031.5,024.8,13.0,0000.0,0011.20,0003.24,0002.49
2024-02-20 06:12:00,SystemResetWarning,0827.8,5.00,000.00,022.9,022.2,000.0,031.4,024.8,13.1,0000.0,0011.11,0003.28,0002.53
2024-02-20 06:13:00,SystemResetWarning,0827.6,5.00,000.00,022.9,022.2,000.0,031.4,024.8,13.1,0000.0,0010.99,0003.29,0002.55
2024-02-20 06:14:00,SystemResetWarning,0827.7,5.01,000.00,022.9,022.2,000.0,031.5,024.8,13.2,0000.0,0011.29,0003.29,0002.57
2024-02-20 06:15:00,SystemResetWarning,0827.7,5.01,000.00,022.9,022.2,000.0,031.5,024.8,13.1,0000.0,0011.47,0003.28,0002.58
2024-02-20 06:16:00,SystemResetWarning,0827.7,5.00,000.00,022.9,022.2,000.0,031.4,024.8,13.1,0000.0,0011.44,0003.29,0002.61
2024-02-20 06:17:00,SystemResetWarning,0827.7,4.99,000.00,022.9,022.2,000.0,031.4,024.8,13.1,0000.0,0010.86,0003.30,0002.61
2024-02-20 06:18:00,SystemResetWarning,0827.5,5.00,000.00,022.9,022.2,000.0,031.4,024.8,13.1,0000.0,0011.20,0003.31,0002.60
2024-02-20 06:19:00,SystemResetWarning,0827.5,5.00,000.00,022.9,022.2,000.0,031.4,024.8,13.1,0000.0,0011.13,0003.35,0002.62
2024-02-20 06:20:00,SystemResetWarning,0827.6,5.00,000.00,022.9,022.2,000.0,031.4,024.8,13.2,0000.0,0011.16,0003.35,0002.64
2024-02-20 06:21:00,SystemResetWarning,0827.6,4.99,000.00,022.9,022.2,000.0,031.4,024.8,13.3,0000.0,0011.10,0003.33,0002.66
2024-02-20 06:22:00,SystemResetWarning,0827.5,5.00,000.00,022.9,022.2,000.0,031.4,024.8,13.2,0000.0,0010.17,0003.34,0002.68
2024-02-20 06:23:00,SystemResetWarning,0827.5,5.00,000.00,022.9,022.2,000.0,031.4,024.8,13.2,0000.0,0010.74,0003.34,0002.70
2024-02-20 06:24:00,SystemResetWarning,0827.5,5.00,000.00,022.9,022.2,000.0,031.4,024.8,13.2,0000.0,0010.45,0003.34,0002.73
2024-02-20 06:25:00,SystemResetWarning,0827.6,5.01,000.00,022.9,022.2,000.0,031.4,024.8,13.2,0000.0,0010.53,0003.39,0002.76
2024-02-20 06:26:00,SystemResetWarning,0827.7,5.00,000.00,022.9,022.2,000.0,031.4,024.8,13.3,0000.0,0010.43,0003.45,0002.79
2024-02-20 06:27:00,SystemResetWarning,0827.7,5.01,000.00,022.9,022.2,000.0,031.4,024.8,13.3,0000.0,0010.39,0003.47,0002.81
2024-02-20 06:28:00,SystemResetWarning,0827.7,5.00,000.00,022.9,022.2,000.0,031.4,024.8,13.3,0000.0,0011.11,0003.48,0002.86
2024-02-20 06:29:00,SystemResetWarning,0827.8,4.98,000.00,022.9,022.2,000.0,031.4,024.8,13.3,0000.0,0010.72,0003.47,0002.90
2024-02-20 06:30:00,SystemResetWarning,0827.9,5.00,000.00,022.9,022.2,000.0,031.4,024.8,13.2,0000.0,0010.17,0003.46,0002.92
2024-02-20 06:31:00,SystemResetWarning,0827.7,5.00,000.00,022.9,022.2,000.0,031.4,024.8,13.4,0000.0,0009.61,0003.48,0002.94
2024-02-20 06:32:00,SystemResetWarning,0827.7,5.02,000.00,022.9,022.2,000.0,031.4,024.8,13.3,0000.0,0010.88,0003.51,0002.97
2024-02-20 06:33:00,SystemResetWarning,0827.6,5.00,000.00,022.9,022.2,000.0,031.4,024.8,13.0,0000.0,0011.12,0003.56,0002.99
2024-02-20 06:34:00,SystemResetWarning,0827.5,4.98,000.00,022.9,022.2,000.0,031.4,024.8,12.9,0000.0,0010.56,0003.60,0003.00
2024-02-20 06:35:00,SystemResetWarning,0827.6,5.00,000.00,022.9,022.2,000.0,031.4,024.8,13.0,0000.0,0010.94,0003.68,0003.02
2024-02-20 06:36:00,SystemResetWarning,0827.6,5.00,000.00,022.8,022.2,000.0,031.4,024.7,13.1,0000.0,0010.58,0003.67,0003.03
2024-02-20 06:37:00,SystemResetWarning,0827.7,5.01,000.00,022.8,022.2,000.0,031.4,024.7,13.2,0000.0,0009.89,0003.60,0003.03
2024-02-20 06:38:00,SystemResetWarning,0827.5,5.01,000.00,022.8,022.2,000.0,031.4,024.7,13.1,0000.0,0010.37,0003.59,0003.03
2024-02-20 06:39:00,SystemResetWarning,0827.5,4.99,000.00,022.8,022.2,000.0,031.4,024.7,13.0,0000.0,0009.91,0003.59,0003.03
2024-02-20 06:40:00,SystemResetWarning,0827.5,4.99,000.00,022.8,022.2,000.0,031.4,024.7,13.0,0000.0,0009.56,0003.63,0003.04
2024-02-20 06:41:00,SystemResetWarning,0827.7,5.01,000.00,022.8,022.2,000.0,031.4,024.7,13.0,0000.0,0009.58,0003.63,0003.05
2024-02-20 06:42:00,SystemResetWarning,0827.7,5.01,000.00,022.8,022.2,000.0,031.4,024.7,13.1,0000.0,0009.45,0003.59,0003.03
2024-02-20 06:43:00,SystemResetWarning,0827.7,5.00,000.00,022.8,022.2,000.0,031.4,024.7,13.2,0000.0,0008.49,0003.56,0003.00
2024-02-20 06:44:00,SystemResetWarning,0827.8,4.99,000.00,022.8,022.2,000.0,031.4,024.7,13.4,0000.0,0008.30,0003.54,0002.98
2024-02-20 06:45:00,SystemResetWarning,0827.8,5.00,000.00,022.8,022.1,000.0,031.4,024.6,13.4,0000.0,0008.86,0003.50,0002.96
2024-02-20 06:46:00,SystemResetWarning,0827.8,5.01,000.00,022.8,022.1,000.0,031.4,024.6,13.3,0000.0,0008.38,0003.46,0002.94
2024-02-20 06:47:00,SystemResetWarning,0827.8,5.01,000.00,022.8,022.1,000.0,031.4,024.6,13.3,0000.0,0008.61,0003.42,0002.91
2024-02-20 06:48:00,SystemResetWarning,0827.7,5.00,000.00,022.7,022.0,000.0,031.3,024.5,13.3,0000.0,0009.33,0003.41,0002.87
2024-02-20 06:49:00,SystemResetWarning,0827.7,5.00,000.00,022.7,022.0,000.0,031.3,024.5,13.3,0000.0,0009.41,0003.42,0002.83
2024-02-20 06:50:00,SystemResetWarning,0827.7,4.99,000.00,022.7,022.0,000.0,031.3,024.6,13.3,0000.0,0009.24,0003.40,0002.80
2024-02-20 06:51:00,SystemResetWarning,0827.7,4.99,000.00,022.7,022.0,000.0,031.3,024.6,13.3,0000.0,0009.17,0003.37,0002.77
2024-02-20 06:52:00,SystemResetWarning,0827.8,5.00,000.00,022.7,022.0,000.0,031.3,024.6,13.3,0000.0,0009.91,0003.39,0002.75
2024-02-20 06:53:00,SystemResetWarning,0827.8,4.99,000.00,022.7,022.0,000.0,031.3,024.6,13.3,0000.0,0010.14,0003.40,0002.73
2024-02-20 06:54:00,SystemResetWarning,0827.7,5.00,000.00,022.7,022.0,000.0,031.3,024.5,13.3,0000.0,0010.33,0003.44,0002.73
2024-02-20 06:55:00,SystemResetWarning,0827.7,5.01,000.00,022.7,022.0,000.0,031.3,024.5,13.2,0000.0,0010.37,0003.42,0002.71
2024-02-20 06:56:00,SystemResetWarning,0827.7,5.00,000.00,022.7,022.0,000.0,031.3,024.5,13.2,0000.0,0009.44,0003.40,0002.71
2024-02-20 06:57:00,SystemResetWarning,0827.7,5.00,000.00,022.6,022.0,000.0,031.2,024.5,13.1,0000.0,0009.75,0003.36,0002.70
2024-02-20 06:58:00,SystemResetWarning,0827.7,5.00,000.00,022.6,022.0,000.0,031.2,024.5,13.1,0000.0,0009.49,0003.36,0002.70
2024-02-20 06:59:00,SystemResetWarning,0827.7,5.00,000.00,022.6,022.0,000.0,031.3,024.5,13.1,0000.0,0009.97,0003.35,0002.72
